Tracking 30922 objects as of 2-Jul-2025
HD Live streaming from Space Station
objects crossing your sky now

WESTFORD NEEDLES

Track WESTFORD NEEDLES now!
10-day predictions
WESTFORD NEEDLES is classified as:


NORAD ID: 2375
Int'l Code: 1963-014W
Perigee: 1,974.2 km
Apogee: 5,183.7 km
Inclination: 86.4 °
Period: 164.6 minutes
Semi major axis: 9949 km
RCS: 0.1605 m2 (medium)
Launch date: May 9, 1963
Source: United States (US)
Launch site: AIR FORCE WESTERN TEST RANGE (AFWTR)
Your satellite tracking list
PACE-1
Track 1 satellite(s)




NASA's NSSDC Master Catalog

Two Line Element Set (TLE):
1 02375U 63014W   25181.20096121  .00000130  00000-0  14593-1 0  9996
2 02375  86.4487 100.0561 1612830 204.6513 146.8136  8.74720778340647
Source of the keplerian elements: AFSPC